Погода в Чернигове

Хотите узнать прогноз погоды в Чернигове? Тогда Вам сюда: Погода в Чернигове

Поиск расширенной информации на нашем сайте:

Полезная информация:

Новости сайта



02.01.2020
Опубликован Долгосрочный прогноз погоды по городам России и ближнего зарубежья на январь 2020 года.
Карты: Прогноз на январь и февраль 2020 года, Сравнение прогнозируемой аномалии приземной температуры воздуха на январь 2020 года по разным моделям.




Погода в Чернигове - сегодня

Время (UTC), дата Ветер
(°,м/с) 
Видим.   Явления Облачность Т
(°С)
Тd
(°С)
f(%) Тe
(°С)
Pmin
(гПа)
dP
(гПа)
Po
(мм)
O2
(г/м3)
Тmin Tmax R s Состояние
почвы
06 04.06.20 160 (Ю) 10 км    ?/?  
+15.3 +9.1 66 +16  1004.3  -0.1  743  282  +9         
09 04.06.20 220 (ЮЗ) 10 км    5/5 1000 м 
[Cu hum]
+17.7 +8.4 54 +18  1004.4  0.2  743  280           
12 04.06.20 190 (Ю) 20000 м  {ливн. осадки}  8/5 1000 м кучево-дожд., верхняя 
[Cb cap|Ci fib]
+18.4 +8.2 51 +19  1003.6  -0.8  742  279      0.0     
15 04.06.20 180 (Ю) 10 км  {гроза, ливн. осадки}  8/6 1000 м кучево-дожд., верхняя 
[Cb cap|Ci fib]
+16.5 +10.9 69 +21  1003.9  0.3  742  280           
18 04.06.20 170 (Ю) 10 км  {гроза, ливн. осадки}  8/5 1000 м кучево-дожд., средняя 
[Cb cap|Ac trans]
+14.8 +9.6 71 +16  1004.6  0.6  743  282    +19.7     
21 04.06.20 140 (ЮВ) н/о    3/0 средняя 
[Ac trans]
+10.4 +9.4 94 +13  1005.3  0.4  743  287           
00 05.06.20 250 (З) н/о  слаб. ливневой дождь  8/8 750 м кучево-дожд. 
[Cb cap]
+10.5 +9.7 95 +12  1005.5  0.2  743  287           
03 05.06.20 140 (ЮВ) 4000 м  дымка{ливн. осадки}  8/8 800 м кучево-дожд. 
[Cb cap]
+10.6 +10 96 +13  1004.6  -0.8  743  286           
06 05.06.20 200 (Ю) 10 км  {ливн. осадки}  8/8 1000 м кучево-дожд. 
[Cb calv]
+15.2 +13 87 +23  1005.5  1.1  744  281  +10.2       
09 05.06.20 210 (ЮЗ) 10 км    8/8 1170 м 
[Sc]
+17.8 +13 73 +24  1006.4  744  279           
12 05.06.20 190 (Ю) 10 км    9/6 1000 м кучево-дожд., средняя, верхняя 
[Cb calv|As trans|Ci fib]
+20.6 +14.8 69 +29  1006.9  0.6  745  276           
15 05.06.20 200 (Ю) 10 км    9/3 1000 м средняя, верхняя 
[Sc|Ac trans|Ci fib]
+20.1 +14.1 68 +27  1007.1  0.2  745  277           
18 05.06.20 тихо ()   10 км    4/3 1000 м средняя 
[Sc|Ac trans]
+19.2 +16 82 +30  1007.5  0.4  745  277    +21.7       
21 05.06.20 160 (Ю) н/о  дымка  4/0 средняя 
[Ac trans]
+17 +15.5 91 +28  1008  0.4  746  279           
00 06.06.20 160 (Ю) н/о  дымка  9/0 средняя, верхняя 
[Ac trans|Ci fib]
+15 +14.1 94 +23  1008.4  0.2  746  282           
03 06.06.20 160 (Ю) 4000 м  дымка  9/0 средняя, верхняя 
[Ac trans|Ci fib]
+15 +13.8 93 +23  1009  0.6  746  282           
06 06.06.20 120 (ЮВ) 10 км    10/0 средняя, верхняя 
[Ac trans|Ci fib]
+19.2 +15.3 78 +30  1009.1  0.3  746  278  +13.5         
09 06.06.20 170 (Ю) 10 км    10/0 средняя, верхняя 
[Ac trans|Cs]
+23.8 +17.6 68 +37  1009.5  0.7  747  273           
12 06.06.20 170 (Ю) 10 км    4/0 средняя 
[Ac lent]
+26.8 +18.4 60 +42  1009.9  0.5  747  270           
15 06.06.20 160 (Ю) 10 км    8/6 1000 м кучево-дожд., средняя 
[Cb calv|Ac trans]
+25.8 +18.4 64 +41  1009.5  -0.4  747  271           
18 06.06.20 220 (ЮЗ) 10 км    8/0 средняя 
[Sc|Ac trans]
+22.6 +17.6 73 +36  1011.2  1.5  748  274    +27.6       
21 06.06.20 тихо ()   н/о    8/4 1000 м средняя 
[Sc|Ac trans]
+21.1 +17.4 79 +34  1012.8  1.5  749  276           
00 07.06.20 тихо ()   н/о  местами туман поземный  3/3 1000 м 
[Sc]
+15.4 +14.9 97 +24  1013.6  0.5  750  283           
03 07.06.20 210 (ЮЗ) 4000 м    ясно 
+16.2 +14.5 90 +25  1014.2  0.6  750  282           
06 07.06.20 тихо ()   10 км    3/0 верхняя 
[Ci fib]
+24.2 +19 73 +41  1014.1  0.3  750  273  +15         
Время (UTC), дата Ветер
(°,м/с) 
Видим.   Явления Облачность Т
(°С)
Тd
(°С)
f(%) Тe
(°С)
Pmin
(гПа)
dP
(гПа)
Po
(мм)
O2
(г/м3)
Тmin Tmax R s Состояние
почвы

Для получения пояснительной информации подведите курсор к названию столбца.

ПОГОДА в Чернигове - архив

Всё, что Вы хотите узнать о погоде в Чернигове - удобно и подробно!

Выберите нужную дату (начиная с 1 января 2019* года) и нажмите кнопку "Найти".
Будут отображены архивные сводки погоды по пункту Чернигов, начиная с указанной даты.


Отображать данные в формате CSV (для использования в таблицах Excel)


Внимание! Наш архив погоды предназначен исключительно для личного некоммерческого использования в познавательных целях. Если Вам необходимы официальные справки о состоянии погоды (для производственных, юридических, коммерческих и т.п. целей), обращайтесь в органы Росгидромета.

*Примечание: данная дата относится к архиву по метеостанциям СССР (Россия, СНГ, Балтия).
Архив по метеостанциям Зарубежной Европы и Азии (кроме Китая) хранится 10 дней, по другим регионам земного шара (Китай, Африка, Америка, Австралия, Океания) - 1 день.

Чернигов - район местоположения метеостанции


Название, широта, долгота, высота метеостанции:
Чернигов 51.5°ш. 31.2°д. 141 м над ур. моря [Украина]

Дополнительная информация

В oтличие oт бoльшинства пoгoдных сайтoв мы публикуем пoдрoбную метеoинфoрмацию в детальнoм прoфессиoнальнoм фoрмате.

Характеристики температуры и влажнoсти вoздуха измеряются на высoте 2 м в тени вдали oт зданий и деревьев.
Скoрoсть ветра измеряется на высoте 10 м (на урoвне рoста челoвека скoрoсть ветра ниже в 1.5-2 раза). Если метеoстанция нахoдится в гoрoде или в лесу, тo скoрoсть ветра занижена на 2-4 м/с пo сравнению с oткрытым местoм. Скoрoсть ветра над акватoриями крупных рек и oзёр, а также на вершинах хoлмoв на 2-5 м/с выше, чем в oбычных услoвиях.
Атмoсфернoе давление в разных тoчках местнoсти мoжет значительнo oтличаться oт давления на метеoстанции, в зависимoсти oт услoвий рельефа (при пoдъёме на 10 м давление пoнижается примернo на 1 мм рт.ст.).